• In Lithuania
  • List of Countries
  • For 7 days
  • Water Temperature
  • Satellite Maps
  • Weather Map
  • Weather Widgets
  • user-avatar
    Login

    Hourly Weather Kofanov

    Today, 22 October, Monday

    Time Temperature Precipitation Wind Pressure Humidity
    00:00 +15°C° 0 mm 4 mps 740 mmHg 71%
    01:00 +15°C° 0 mm 4 mps 740 mmHg 73%
    02:00 +15°C° 0 mm 4 mps 740 mmHg 74%
    03:00 +15°C° 0 mm 4 mps 740 mmHg 76%
    04:00 +14°C° 0 mm 4 mps 740 mmHg 77%
    05:00 +14°C° 0 mm 4 mps 740 mmHg 78%
    06:00 +14°C° 0 mm 4 mps 740 mmHg 80%
    07:00 +15°C° 0 mm 4 mps 740 mmHg 78%
    08:00 +15°C° 0 mm 4 mps 741 mmHg 76%
    09:00 +17°C° 0 mm 4 mps 741 mmHg 74%
    10:00 +18°C° 0 mm 4 mps 741 mmHg 69%
    11:00 +19°C° 0 mm 3 mps 741 mmHg 65%
    12:00 +20°C° 0 mm 3 mps 741 mmHg 61%
    13:00 +19°C° 0.2 mm 3 mps 741 mmHg 63%
    14:00 +19°C° 0.2 mm 3 mps 741 mmHg 65%
    15:00 +19°C° 0.2 mm 2 mps 741 mmHg 68%
    16:00 +18°C° 0.2 mm 2 mps 741 mmHg 71%
    17:00 +17°C° 0.2 mm 2 mps 741 mmHg 75%
    18:00 +17°C° 0.2 mm 2 mps 741 mmHg 78%
    19:00 +16°C° 0 mm 2 mps 741 mmHg 80%
    20:00 +16°C° 0 mm 2 mps 741 mmHg 82%
    21:00 +15°C° 0 mm 2 mps 741 mmHg 84%
    22:00 +15°C° 0 mm 2 mps 741 mmHg 85%
    23:00 +15°C° 0 mm 2 mps 741 mmHg 86%

    Tomorrow, 23 October, Tuesday

    Time Temperature Precipitation Wind Pressure Humidity
    00:00 +15°C° 0 mm 2 mps 741 mmHg 88%
    01:00 +14°C° 0 mm 2 mps 741 mmHg 88%
    02:00 +14°C° 0 mm 2 mps 741 mmHg 89%
    03:00 +14°C° 0 mm 2 mps 741 mmHg 90%
    04:00 +14°C° 0 mm 2 mps 741 mmHg 91%
    05:00 +14°C° 0 mm 2 mps 741 mmHg 92%
    06:00 +13°C° 0 mm 2 mps 740 mmHg 93%
    07:00 +14°C° 0.1 mm 2 mps 741 mmHg 89%
    08:00 +14°C° 0.1 mm 3 mps 741 mmHg 85%
    09:00 +16°C° 0.1 mm 3 mps 741 mmHg 80%
    10:00 +17°C° 0 mm 4 mps 741 mmHg 75%
    11:00 +17°C° 0 mm 4 mps 740 mmHg 71%
    12:00 +18°C° 0 mm 4 mps 740 mmHg 66%
    13:00 +18°C° 0 mm 4 mps 740 mmHg 63%
    14:00 +19°C° 0 mm 4 mps 739 mmHg 61%
    15:00 +19°C° 0 mm 4 mps 739 mmHg 58%
    16:00 +18°C° 0 mm 3 mps 739 mmHg 62%
    17:00 +17°C° 0 mm 3 mps 739 mmHg 65%
    18:00 +16°C° 0 mm 2 mps 739 mmHg 68%
    19:00 +16°C° 0 mm 2 mps 739 mmHg 71%
    20:00 +15°C° 0 mm 2 mps 738 mmHg 75%
    21:00 +14°C° 0 mm 2 mps 738 mmHg 78%
    22:00 +14°C° 0 mm 2 mps 738 mmHg 79%
    23:00 +14°C° 0 mm 2 mps 738 mmHg 81%

    Day after tomorrow, 24 October, Wednesday

    Time Temperature Precipitation Wind Pressure Humidity
    00:00 +14°C° 0 mm 2 mps 737 mmHg 83%
    01:00 +13°C° 0.1 mm 2 mps 737 mmHg 84%
    02:00 +13°C° 0.1 mm 2 mps 737 mmHg 86%
    03:00 +13°C° 0.1 mm 2 mps 736 mmHg 88%
    04:00 +13°C° 0 mm 2 mps 736 mmHg 88%
    05:00 +13°C° 0 mm 2 mps 735 mmHg 89%
    06:00 +12°C° 0 mm 2 mps 735 mmHg 90%
    07:00 +13°C° 0.1 mm 2 mps 735 mmHg 86%
    08:00 +14°C° 0.1 mm 2 mps 735 mmHg 81%
    09:00 +14°C° 0.1 mm 3 mps 734 mmHg 77%
    10:00 +16°C° 0.4 mm 3 mps 734 mmHg 77%
    11:00 +15°C° 0.4 mm 4 mps 733 mmHg 76%
    12:00 +17°C° 0.4 mm 4 mps 732 mmHg 75%
    13:00 +17°C° 0.9 mm 4 mps 731 mmHg 76%
    14:00 +17°C° 0.9 mm 4 mps 731 mmHg 76%
    15:00 +17°C° 0.9 mm 3 mps 730 mmHg 76%
    16:00 +16°C° 0.3 mm 3 mps 730 mmHg 78%
    17:00 +16°C° 0.3 mm 3 mps 729 mmHg 80%
    18:00 +15°C° 0.3 mm 2 mps 729 mmHg 82%
    19:00 +15°C° 0.3 mm 2 mps 729 mmHg 82%
    20:00 +15°C° 0.3 mm 2 mps 728 mmHg 83%
    21:00 +15°C° 0.3 mm 2 mps 728 mmHg 84%
    22:00 +15°C° 1 mm 2 mps 727 mmHg 85%
    23:00 +15°C° 1 mm 2 mps 727 mmHg 87%

    25 October, Thursday

    Time Temperature Precipitation Wind Pressure Humidity
    00:00 +15°C° 1 mm 2 mps 727 mmHg 88%
    01:00 +15°C° 1.1 mm 2 mps 726 mmHg 89%
    02:00 +14°C° 1.1 mm 2 mps 726 mmHg 90%
    03:00 +14°C° 1.1 mm 2 mps 726 mmHg 91%
    04:00 +14°C° 0.4 mm 2 mps 726 mmHg 88%
    05:00 +13°C° 0.4 mm 3 mps 726 mmHg 85%
    06:00 +13°C° 0.4 mm 4 mps 726 mmHg 82%
    07:00 +13°C° 1.5 mm 4 mps 726 mmHg 83%
    08:00 +12°C° 1.5 mm 5 mps 726 mmHg 84%
    09:00 +11°C° 1.5 mm 6 mps 727 mmHg 86%
    10:00 +10°C° 1 mm 6 mps 727 mmHg 84%
    11:00 +10°C° 1 mm 5 mps 728 mmHg 82%
    12:00 +9°C° 1 mm 5 mps 728 mmHg 81%
    13:00 +9°C° 0.9 mm 5 mps 728 mmHg 80%
    14:00 +8°C° 0.9 mm 5 mps 729 mmHg 79%
    15:00 +7°C° 0.9 mm 5 mps 729 mmHg 78%
    16:00 +7°C° 0.1 mm 5 mps 730 mmHg 77%
    17:00 +8°C° 0.1 mm 5 mps 730 mmHg 75%
    18:00 +8°C° 0.1 mm 5 mps 731 mmHg 74%
    19:00 +8°C° 0 mm 5 mps 731 mmHg 74%
    20:00 +8°C° 0 mm 4 mps 731 mmHg 74%
    21:00 +8°C° 0 mm 4 mps 732 mmHg 74%
    22:00 +8°C° 0 mm 4 mps 732 mmHg 75%
    23:00 +8°C° 0 mm 5 mps 732 mmHg 76%

    26 October, Friday

    Time Temperature Precipitation Wind Pressure Humidity
    00:00 +8°C° 0 mm 5 mps 732 mmHg 76%
    01:00 +7°C° 0 mm 5 mps 733 mmHg 76%
    02:00 +7°C° 0 mm 4 mps 733 mmHg 76%
    03:00 +7°C° 0 mm 4 mps 733 mmHg 75%
    04:00 +7°C° 0 mm 4 mps 734 mmHg 77%
    05:00 +8°C° 0 mm 3 mps 734 mmHg 78%
    06:00 +7°C° 0 mm 3 mps 735 mmHg 80%
    07:00 +7°C° 0 mm 4 mps 735 mmHg 77%
    08:00 +7°C° 0 mm 4 mps 736 mmHg 73%
    09:00 +8°C° 0 mm 5 mps 736 mmHg 70%
    10:00 +8°C° 0 mm 5 mps 737 mmHg 65%
    11:00 +9°C° 0 mm 6 mps 737 mmHg 59%
    12:00 +10°C° 0 mm 6 mps 737 mmHg 54%
    13:00 +10°C° 0 mm 7 mps 738 mmHg 51%
    14:00 +10°C° 0 mm 7 mps 738 mmHg 49%
    15:00 +10°C° 0 mm 7 mps 738 mmHg 47%
    16:00 +9°C° 0 mm 6 mps 739 mmHg 50%
    17:00 +8°C° 0 mm 5 mps 739 mmHg 54%
    18:00 +7°C° 0 mm 4 mps 740 mmHg 57%
    19:00 +7°C° 0 mm 4 mps 740 mmHg 59%
    20:00 +7°C° 0 mm 4 mps 741 mmHg 60%
    21:00 +8°C° 0 mm 4 mps 741 mmHg 61%
    22:00 +8°C° 0 mm 4 mps 741 mmHg 63%
    23:00 +8°C° 0 mm 5 mps 742 mmHg 65%

    27 October, Saturday

    Time Temperature Precipitation Wind Pressure Humidity
    00:00 +8°C° 0 mm 6 mps 742 mmHg 68%
    01:00 +7°C° 0 mm 5 mps 743 mmHg 72%
    02:00 +7°C° 0 mm 5 mps 743 mmHg 77%
    03:00 +7°C° 0 mm 5 mps 743 mmHg 82%
    04:00 +7°C° 0 mm 4 mps 744 mmHg 85%
    05:00 +7°C° 0 mm 4 mps 744 mmHg 87%
    06:00 +7°C° 0 mm 3 mps 745 mmHg 90%
    07:00 +7°C° 0 mm 4 mps 745 mmHg 84%
    08:00 +8°C° 0 mm 4 mps 746 mmHg 78%
    09:00 +10°C° 0 mm 5 mps 746 mmHg 73%
    10:00 +12°C° 0 mm 5 mps 746 mmHg 66%
    11:00 +13°C° 0 mm 5 mps 746 mmHg 60%
    12:00 +14°C° 0 mm 5 mps 746 mmHg 53%
    13:00 +15°C° 0 mm 5 mps 746 mmHg 53%
    14:00 +15°C° 0 mm 4 mps 746 mmHg 52%
    15:00 +15°C° 0 mm 4 mps 746 mmHg 51%
    16:00 +14°C° 0 mm 3 mps 746 mmHg 55%
    17:00 +14°C° 0 mm 2 mps 746 mmHg 60%
    18:00 +14°C° 0 mm 1 mps 747 mmHg 65%
    19:00 +13°C° 0 mm 1 mps 747 mmHg 67%
    20:00 +13°C° 0 mm 1 mps 747 mmHg 69%
    21:00 +13°C° 0 mm 2 mps 747 mmHg 71%
    22:00 +12°C° 0 mm 2 mps 747 mmHg 72%
    23:00 +12°C° 0 mm 2 mps 747 mmHg 73%

    28 October, Sunday

    Time Temperature Precipitation Wind Pressure Humidity
    00:00 +12°C° 0 mm 2 mps 747 mmHg 74%
    01:00 +10°C° 0 mm 2 mps 748 mmHg 72%
    02:00 +10°C° 0 mm 2 mps 748 mmHg 70%
    03:00 +10°C° 0 mm 2 mps 748 mmHg 68%
    04:00 +10°C° 0 mm 2 mps 748 mmHg 67%
    05:00 +9°C° 0 mm 2 mps 748 mmHg 66%
    06:00 +9°C° 0 mm 3 mps 748 mmHg 65%
    07:00 +10°C° 0 mm 3 mps 748 mmHg 60%
    08:00 +12°C° 0 mm 4 mps 748 mmHg 55%
    09:00 +13°C° 0 mm 5 mps 748 mmHg 50%
    10:00 +15°C° 0 mm 5 mps 748 mmHg 45%
    11:00 +16°C° 0 mm 5 mps 748 mmHg 40%
    12:00 +19°C° 0 mm 5 mps 748 mmHg 35%
    13:00 +19°C° 0 mm 5 mps 748 mmHg 35%
    14:00 +19°C° 0 mm 4 mps 747 mmHg 35%
    15:00 +20°C° 0 mm 4 mps 747 mmHg 35%
    16:00 +18°C° 0 mm 4 mps 747 mmHg 40%
    17:00 +17°C° 0 mm 3 mps 747 mmHg 44%
    18:00 +14°C° 0 mm 3 mps 747 mmHg 49%
    19:00 +13°C° 0 mm 3 mps 747 mmHg 51%
    20:00 +13°C° 0 mm 3 mps 747 mmHg 53%
    21:00 +12°C° 0 mm 3 mps 747 mmHg 55%
    22:00 +12°C° 0 mm 3 mps 747 mmHg 56%
    23:00 +12°C° 0 mm 2 mps 746 mmHg 57%
    Show more